User: anonymous   Login
Location: Unspecified
(0.0000°N, 0.0000°E)
Time: 05:37:35
(UTC+00:00)
Language:

ANNA 1B - Orbit

View from above orbital plane
View from above orbital plane
View from above satellite
View from above satellite

Ground track
Ground track

The orbit data is extracted from the following two-line orbital elements,

1   446U 62060A   18343.86373720 -.00000130 +00000-0 -57954-5 0  9994
2   446 050.1410 200.9181 0070255 144.1785 305.0395 13.35266955736788
Epoch (UTC): 09 December 2018 20:43:46
Eccentricity: 0.0070255
inclination: 50.1410°
perigee height: 1074 km
apogee height: 1179 km
right ascension of ascending node: 200.9181°
argument of perigee: 144.1785°
revolutions per day: 13.35266955
mean anomaly at epoch: 305.0395°
orbit number at epoch: 73678

The dashed part of the orbit path shows where the satellite is in the earth's shadow,  

DLR